Location: Newark
(48.3453°N, 0.5589°E)
Time: 04:15:41
(UTC+00:00)

A-11 Canister half - Visible Passes

Search period start: 06 December 2019 00:00
Search period end: 16 December 2019 00:00
Orbit: 1515 x 1685 km, 47.2° (Epoch: 05 December)

Date Brightness Start Highest point End Pass type
(mag) Time Alt. Az. Time Alt. Az. Time Alt. Az.
06 Dec 9.4 17:47:38 10° WNW 17:57:37 70° SSW 18:07:16 12° ESE visible
06 Dec 10.2 19:52:56 10° WNW 20:01:36 34° SW 20:05:32 26° S visible
07 Dec 9.4 17:24:42 10° W 17:34:41 71° SSW 17:44:47 10° ESE visible
07 Dec 10.2 19:29:56 10° WNW 19:38:44 36° SW 19:44:44 20° S visible
08 Dec 9.4 17:01:46 10° W 17:11:44 73° SSW 17:21:52 10° ESE visible
08 Dec 10.2 19:06:56 10° WNW 19:15:52 37° SW 19:24:11 12° SSE visible
09 Dec 9.4 16:38:50 10° W 16:48:48 74° SSW 16:58:56 10° ESE visible
09 Dec 10.2 18:43:57 10° WNW 18:53:00 39° SW 19:02:06 10° SSE visible
09 Dec 11.3 20:53:22 10° WSW 20:55:45 11° WSW 20:58:07 10° SW visible
10 Dec 10.2 18:20:59 10° WNW 18:30:07 41° SW 18:39:20 10° SSE visible
10 Dec 11.3 20:29:28 10° W 20:32:58 12° WSW 20:36:27 10° SW visible
11 Dec 10.2 17:58:01 10° WNW 18:07:14 43° SW 18:16:34 10° SSE visible
11 Dec 11.3 20:05:53 10° W 20:10:10 13° WSW 20:14:28 10° SSW visible
12 Dec 10.2 17:35:03 10° WNW 17:44:21 45° SW 17:53:46 10° SSE visible
12 Dec 11.3 19:42:27 10° W 19:47:22 15° SW 19:52:19 10° SSW visible
13 Dec 10.2 17:12:06 10° WNW 17:21:28 47° SW 17:30:58 10° SE visible
13 Dec 11.3 19:19:07 10° W 19:24:34 16° SW 19:30:03 10° SSW visible
14 Dec 10.1 16:49:10 10° WNW 16:58:35 49° SW 17:08:09 10° SE visible
14 Dec 11.3 18:55:52 10° W 19:01:45 17° SW 19:07:42 10° SSW visible
15 Dec 10.1 16:26:14 10° WNW 16:35:41 51° SSW 16:45:20 10° SE visible
15 Dec 11.4 18:32:40 10° W 18:38:57 19° SW 18:45:17 10° SSW visible
